Погода в Жакмеле

Гаити     18°13′57″N   72°32′18″W
темп.,
°C
ветер,
м/с
пор.,
м/с
влажн.,
%
обл.,
%
осадки,
мм/ч
давл.,
гПа
погр.,
м
14 мая, пт
пт1423:00+24юв228445 0.1 1016210
02:00+23ю118662 0.3 1015223
05:00+23юв118359 0.1 1015245
08:00+25ююв217821 0.1 1016498
11:00+27ююв436727 0.1 1017913
14:00+27ююв436842 0.2 1015916
17:00+26юв437021 0.1 1014793
20:00+24ююв228212 0.3 1015220
15 мая, сб
сб1523:00+24ююз118334 0.3 1016203
02:00+24ююз118255 0.4 1015242
05:00+23с01851 0.3 1015161
08:00+24в117910 0.3 1016396
11:00+27ю326722 0.1 1016950
14:00+27ююв337046 0.5 1015674
17:00+26ююв227329 0.8 1013627
20:00+23ссз11854 3.1 101531
16 мая, вс
вс1623:00+24ссв118345 0.8 101661
02:00+24вюв118294 1.4 1014133
05:00+23юв128457 0.1 1014253
08:00+24юв12807 1.8 1016305
11:00+27ююв326924 1.0 1017870
14:00+27ююв436726 2.0 1015891
17:00+25юв337653 1.3 1014522
20:00+23в118612 4.1 101562
17 мая, пн
пн1723:00+23ссв118515 3.3 101728
02:00+23вюв23858 4.3 1015269
05:00+22св11865 0.2 1015196
08:00+24св01785 0.2 1016286
11:00+27ююв34635 0.0 1016872
14:00+27ююв456610 0.0 1015995
17:00+26юв447045 0.7 1014791
20:00+24юв238428 2.8 1015214
18 мая, вт
вт1823:00+23юв128651 4.0 1017119
02:00+23ююв118665 6.1 1016235
05:00+23вюв128785 0.1 1015254
08:00+24в018264 0.1 1016342
11:00+27ю336066 0.0 1017876
14:00+27ююв346098 0.0 1015887
17:00+26ююв447257 0.3 1014802
20:00+24юв3483100 2.4 1015292